| time (UTC) | temp F | wind direction | speed MPH | gust MPH | rain 1hr in | rain 24hr in | rain mn in | humidity % | barometer mb |
| 20260507171536 | 52 | 338 | 8.0 | 17.0 | 0.00 | 0.00 | 0.00 | 21 | 1008.2 |
| 20260507170516 | 51 | 0 | 8.0 | 17.0 | 0.00 | 0.00 | 0.00 | 24 | 1008.4 |
| 20260507165516 | 52 | 315 | 7.0 | 21.0 | 0.00 | 0.00 | 0.00 | 23 | 1008.3 |
| 20260507164515 | 51 | 0 | 9.0 | 17.0 | 0.00 | 0.00 | 0.00 | 24 | 1008.4 |
| 20260507163515 | 51 | 0 | 5.0 | 15.0 | 0.00 | 0.00 | 0.00 | 26 | 1008.5 |
| 20260507162536 | 51 | 23 | 6.0 | 16.0 | 0.00 | 0.00 | 0.00 | 25 | 1008.6 |
| 20260507161516 | 51 | 315 | 6.0 | 21.0 | 0.00 | 0.00 | 0.00 | 25 | 1008.7 |
| 20260507160517 | 51 | 203 | 8.0 | 19.0 | 0.00 | 0.00 | 0.00 | 26 | 1008.7 |
| 20260507155517 | 49 | 338 | 10.0 | 22.0 | 0.00 | 0.00 | 0.00 | 27 | 1008.8 |
| 20260507154517 | 50 | 338 | 8.0 | 21.0 | 0.00 | 0.00 | 0.00 | 28 | 1008.8 |
| 20260507153517 | 49 | 338 | 9.0 | 19.0 | 0.00 | 0.00 | 0.00 | 28 | 1008.9 |
| 20260507152537 | 49 | 225 | 4.0 | 14.0 | 0.00 | 0.00 | 0.00 | 31 | 1008.9 |
| 20260507151517 | 49 | 225 | 4.0 | 16.0 | 0.00 | 0.00 | 0.00 | 33 | 1008.8 |
| 20260507150537 | 47 | 315 | 7.0 | 16.0 | 0.00 | 0.00 | 0.00 | 34 | 1008.9 |
| 20260507145517 | 45 | 270 | 4.0 | 12.0 | 0.00 | 0.00 | 0.00 | 42 | 1009.2 |
| 20260507144517 | 40 | 225 | 2.0 | 9.0 | 0.00 | 0.00 | 0.00 | 55 | 1009.1 |
| 20260507143517 | 37 | 203 | 4.0 | 7.0 | 0.00 | 0.00 | 0.00 | 63 | 1009.4 |
| 20260507142517 | 37 | 203 | 5.0 | 8.0 | 0.00 | 0.00 | 0.00 | 63 | 1009.6 |
| 20260507141517 | 37 | 225 | 2.0 | 5.0 | 0.00 | 0.00 | 0.00 | 63 | 1009.7 |
| 20260507140517 | 38 | 225 | 4.0 | 8.0 | 0.00 | 0.00 | 0.00 | 63 | 1009.8 |
| 20260507135517 | 38 | 225 | 5.0 | 11.0 | 0.00 | 0.00 | 0.00 | 62 | 1009.9 |
| 20260507134537 | 38 | 225 | 4.0 | 9.0 | 0.00 | 0.00 | 0.00 | 64 | 1009.9 |
| 20260507133517 | 36 | 225 | 3.0 | 12.0 | 0.00 | 0.00 | 0.00 | 64 | 1009.9 |
| 20260507132517 | 36 | 225 | 3.0 | 4.0 | 0.00 | 0.00 | 0.00 | 64 | 1010.0 |
| 20260507131517 | 35 | 225 | 3.0 | 4.0 | 0.00 | 0.00 | 0.00 | 64 | 1010.0 |
| 20260507130517 | 35 | 225 | 4.0 | 6.0 | 0.00 | 0.00 | 0.00 | 64 | 1010.1 |
| 20260507125517 | 36 | 225 | 5.0 | 6.0 | 0.00 | 0.00 | 0.00 | 62 | 1010.3 |
| 20260507124517 | 37 | 225 | 2.0 | 4.0 | 0.00 | 0.00 | 0.00 | 60 | 1010.4 |
| 20260507123517 | 36 | 225 | 1.0 | 3.0 | 0.00 | 0.00 | 0.00 | 61 | 1010.5 |
| 20260507122517 | 35 | 225 | 2.0 | 5.0 | 0.00 | 0.00 | 0.00 | 62 | 1010.5 |
| 20260507121517 | 33 | 270 | 1.0 | 6.0 | 0.00 | 0.00 | 0.00 | 65 | 1010.5 |
| 20260507120537 | 32 | 270 | 1.0 | 5.0 | 0.00 | 0.00 | 0.00 | 65 | 1010.4 |
| 20260507115517 | 31 | 0.0 | 2.0 | 0.00 | 0.00 | 0.00 | 67 | 1010.4 | |
| 20260507114517 | 30 | 0.0 | 0.0 | 0.00 | 0.00 | 0.00 | 68 | 1010.3 | |
| 20260507113517 | 30 | 0.0 | 0.0 | 0.00 | 0.00 | 0.00 | 68 | 1010.4 | |
| 20260507112517 | 29 | 0.0 | 0.0 | 0.00 | 0.00 | 0.00 | 67 | 1010.3 | |
| 20260507111517 | 29 | 0.0 | 1.0 | 0.00 | 0.00 | 0.00 | 67 | 1010.3 | |
| 20260507110517 | 29 | 0.0 | 2.0 | 0.00 | 0.00 | 0.00 | 68 | 1010.3 | |
| 20260507105537 | 28 | 293 | 2.0 | 3.0 | 0.00 | 0.00 | 0.00 | 68 | 1010.3 |
| 20260507104517 | 28 | 293 | 2.0 | 3.0 | 0.00 | 0.00 | 0.00 | 68 | 1010.3 |
| 20260507103517 | 28 | 293 | 1.0 | 2.0 | 0.00 | 0.00 | 0.00 | 68 | 1010.4 |
| 20260507102517 | 28 | 293 | 2.0 | 3.0 | 0.00 | 0.00 | 0.00 | 68 | 1010.4 |
| 20260507101517 | 28 | 293 | 2.0 | 3.0 | 0.00 | 0.00 | 0.00 | 68 | 1010.4 |
| 20260507100517 | 28 | 270 | 2.0 | 3.0 | 0.00 | 0.00 | 0.00 | 68 | 1010.4 |
| 20260507095517 | 28 | 270 | 2.0 | 3.0 | 0.00 | 0.00 | 0.00 | 67 | 1010.4 |
| 20260507094517 | 29 | 270 | 2.0 | 3.0 | 0.00 | 0.00 | 0.00 | 66 | 1010.5 |
| 20260507093517 | 29 | 270 | 2.0 | 3.0 | 0.00 | 0.00 | 0.00 | 66 | 1010.3 |
| 20260507092536 | 29 | 270 | 2.0 | 3.0 | 0.00 | 0.00 | 0.00 | 66 | 1010.4 |
| 20260507091516 | 30 | 270 | 2.0 | 3.0 | 0.00 | 0.00 | 0.00 | 66 | 1010.4 |
| 20260507090517 | 30 | 270 | 2.0 | 3.0 | 0.00 | 0.00 | 0.00 | 66 | 1010.5 |
| 20260507085516 | 30 | 270 | 2.0 | 3.0 | 0.00 | 0.00 | 0.00 | 65 | 1010.6 |
| 20260507084516 | 31 | 270 | 3.0 | 4.0 | 0.00 | 0.00 | 0.00 | 64 | 1010.6 |
| 20260507083517 | 32 | 270 | 3.0 | 4.0 | 0.00 | 0.00 | 0.00 | 63 | 1010.5 |
| 20260507082516 | 33 | 270 | 3.0 | 4.0 | 0.00 | 0.00 | 0.00 | 62 | 1010.6 |
| 20260507081516 | 34 | 270 | 1.0 | 3.0 | 0.00 | 0.00 | 0.00 | 61 | 1010.7 |
| 20260507080516 | 35 | 0.0 | 0.0 | 0.00 | 0.00 | 0.00 | 60 | 1010.7 | |
| 20260507075537 | 35 | 0.0 | 0.0 | 0.00 | 0.00 | 0.00 | 60 | 1010.7 | |
| 20260507074516 | 35 | 0.0 | 0.0 | 0.00 | 0.00 | 0.00 | 60 | 1010.7 | |
| 20260507073516 | 36 | 270 | 1.0 | 2.0 | 0.00 | 0.00 | 0.00 | 60 | 1010.7 |
| 20260507072516 | 36 | 0.0 | 2.0 | 0.00 | 0.00 | 0.00 | 59 | 1010.8 | |
| 20260507071516 | 36 | 0.0 | 1.0 | 0.00 | 0.00 | 0.00 | 59 | 1011.0 | |
| 20260507070516 | 36 | 0.0 | 0.0 | 0.00 | 0.00 | 0.00 | 59 | 1010.9 | |
| 20260507065517 | 36 | 0.0 | 2.0 | 0.00 | 0.00 | 0.00 | 59 | 1011.0 | |
| 20260507064516 | 36 | 0.0 | 2.0 | 0.00 | 0.00 | 0.00 | 60 | 1011.2 | |
| 20260507063536 | 36 | 0.0 | 0.0 | 0.00 | 0.00 | 0.00 | 59 | 1011.2 | |
| 20260507062516 | 36 | 0.0 | 0.0 | 0.00 | 0.00 | 0.00 | 59 | 1011.3 | |
| 20260507061516 | 36 | 0.0 | 0.0 | 0.00 | 0.00 | 0.00 | 59 | 1011.3 | |
| 20260507060516 | 36 | 0.0 | 1.0 | 0.00 | 0.00 | 0.00 | 58 | 1011.3 | |
| 20260507055536 | 36 | 0.0 | 2.0 | 0.00 | 0.00 | 0.00 | 57 | 1011.4 | |
| 20260507054516 | 37 | 0.0 | 2.0 | 0.00 | 0.00 | 0.00 | 56 | 1011.5 | |
| 20260507053616 | 37 | 0.0 | 0.0 | 0.00 | 0.00 | 0.00 | 56 | 1011.6 | |
| 20260507052516 | 37 | 0.0 | 0.0 | 0.00 | 0.00 | 0.00 | 55 | 1011.7 | |
| 20260507051536 | 37 | 0.0 | 2.0 | 0.00 | 0.00 | 0.00 | 54 | 1011.7 | |
| 20260507050516 | 37 | 0.0 | 2.0 | 0.00 | 0.00 | 0.00 | 55 | 1011.7 | |
| 20260507045516 | 37 | 0.0 | 0.0 | 0.00 | 0.00 | 0.00 | 54 | 1011.8 | |
| 20260507044516 | 37 | 0.0 | 0.0 | 0.00 | 0.00 | 0.00 | 54 | 1011.8 | |
| 20260507043516 | 37 | 0.0 | 0.0 | 0.00 | 0.00 | 0.00 | 53 | 1011.8 | |
| 20260507042516 | 37 | 0.0 | 0.0 | 0.00 | 0.00 | 0.00 | 53 | 1012.0 | |
| 20260507041536 | 37 | 0.0 | 0.0 | 0.00 | 0.00 | 0.00 | 52 | 1012.1 | |
| 20260507040516 | 38 | 0.0 | 0.0 | 0.00 | 0.00 | 0.00 | 53 | 1012.0 | |
| 20260507035536 | 38 | 0.0 | 0.0 | 0.00 | 0.00 | 0.00 | 51 | 1012.1 | |
| 20260507034516 | 38 | 0.0 | 0.0 | 0.00 | 0.00 | 0.00 | 51 | 1012.2 | |
| 20260507033516 | 39 | 0.0 | 0.0 | 0.00 | 0.00 | 0.00 | 50 | 1012.1 | |
| 20260507032516 | 39 | 0.0 | 0.0 | 0.00 | 0.00 | 0.00 | 49 | 1012.2 | |
| 20260507031516 | 39 | 0.0 | 2.0 | 0.00 | 0.00 | 0.00 | 49 | 1012.2 | |
| 20260507030536 | 39 | 0.0 | 1.0 | 0.00 | 0.00 | 0.00 | 47 | 1012.2 | |
| 20260507025516 | 40 | 0.0 | 0.0 | 0.00 | 0.00 | 0.00 | 46 | 1012.2 | |
| 20260507024516 | 40 | 0.0 | 0.0 | 0.00 | 0.00 | 0.00 | 46 | 1012.2 | |
| 20260507023516 | 40 | 0.0 | 0.0 | 0.00 | 0.00 | 0.00 | 46 | 1012.2 | |
| 20260507022516 | 40 | 0.0 | 0.0 | 0.00 | 0.00 | 0.00 | 45 | 1012.3 | |
| 20260507021516 | 41 | 0.0 | 2.0 | 0.00 | 0.00 | 0.00 | 44 | 1012.2 | |
| 20260507020516 | 41 | 0.0 | 0.0 | 0.00 | 0.00 | 0.00 | 43 | 1012.2 | |
| 20260507015516 | 41 | 0.0 | 2.0 | 0.00 | 0.00 | 0.00 | 42 | 1012.1 | |
| 20260507014516 | 41 | 0.0 | 1.0 | 0.00 | 0.00 | 0.00 | 42 | 1012.0 | |
| 20260507013516 | 41 | 0.0 | 1.0 | 0.00 | 0.00 | 0.00 | 41 | 1012.1 | |
| 20260507012516 | 42 | 0.0 | 0.0 | 0.00 | 0.00 | 0.00 | 41 | 1012.0 | |
| 20260507011536 | 42 | 0.0 | 0.0 | 0.00 | 0.00 | 0.00 | 41 | 1012.0 | |
| 20260507010516 | 42 | 315 | 1.0 | 5.0 | 0.00 | 0.00 | 0.00 | 40 | 1011.9 |
| 20260507005516 | 42 | 293 | 2.0 | 8.0 | 0.00 | 0.00 | 0.00 | 40 | 1011.8 |
| 20260507004536 | 42 | 338 | 3.0 | 10.0 | 0.00 | 0.00 | 0.00 | 39 | 1011.9 |
| 20260507003516 | 43 | 248 | 1.0 | 4.0 | 0.00 | 0.00 | 0.00 | 39 | 1011.9 |
| 20260507002516 | 43 | 248 | 1.0 | 5.0 | 0.00 | 0.00 | 0.00 | 39 | 1012.0 |
| 20260507001516 | 43 | 23 | 2.0 | 8.0 | 0.00 | 0.00 | 0.00 | 38 | 1012.0 |
| 20260507000516 | 43 | 270 | 1.0 | 6.0 | 0.00 | 0.00 | 0.00 | 39 | 1011.9 |
| 20260506235536 | 43 | 338 | 2.0 | 7.0 | 0.00 | 0.00 | 0.00 | 38 | 1011.9 |
| 20260506234515 | 43 | 338 | 1.0 | 6.0 | 0.00 | 0.00 | 0.00 | 38 | 1011.8 |
| 20260506233516 | 44 | 338 | 5.0 | 12.0 | 0.00 | 0.00 | 0.00 | 37 | 1011.7 |
| 20260506232516 | 44 | 338 | 5.0 | 14.0 | 0.00 | 0.00 | 0.00 | 37 | 1011.8 |
| 20260506231515 | 44 | 315 | 3.0 | 8.0 | 0.00 | 0.00 | 0.00 | 37 | 1011.8 |
| 20260506230515 | 44 | 315 | 3.0 | 12.0 | 0.00 | 0.00 | 0.00 | 37 | 1011.7 |
| 20260506225515 | 44 | 0 | 2.0 | 10.0 | 0.00 | 0.00 | 0.00 | 38 | 1011.7 |
| 20260506224518 | 44 | 315 | 7.0 | 13.0 | 0.00 | 0.00 | 0.00 | 37 | 1011.6 |
| 20260506224016 | 44 | 338 | 3.0 | 9.0 | 0.00 | 0.00 | 0.00 | 37 | 1011.7 |
| 20260506223037 | 44 | 338 | 5.0 | 10.0 | 0.00 | 0.00 | 0.00 | 37 | 1011.6 |
| 20260506222016 | 44 | 315 | 4.0 | 10.0 | 0.00 | 0.00 | 0.00 | 38 | 1011.7 |
| 20260506221016 | 45 | 248 | 2.0 | 7.0 | 0.00 | 0.00 | 0.00 | 38 | 1011.6 |
| 20260506220037 | 45 | 338 | 4.0 | 12.0 | 0.00 | 0.00 | 0.00 | 37 | 1011.5 |
| 20260506215037 | 45 | 315 | 5.0 | 13.0 | 0.00 | 0.00 | 0.00 | 36 | 1011.6 |
| 20260506214016 | 45 | 315 | 4.0 | 11.0 | 0.00 | 0.00 | 0.00 | 37 | 1011.8 |
| 20260506213016 | 44 | 338 | 5.0 | 15.0 | 0.00 | 0.00 | 0.00 | 38 | 1011.7 |
| 20260506212016 | 44 | 225 | 1.0 | 5.0 | 0.00 | 0.00 | 0.00 | 39 | 1011.7 |
| 20260506211016 | 44 | 338 | 7.0 | 14.0 | 0.00 | 0.00 | 0.00 | 38 | 1011.8 |
| 20260506210016 | 45 | 338 | 4.0 | 9.0 | 0.00 | 0.00 | 0.00 | 37 | 1011.9 |
| 20260506205016 | 45 | 338 | 5.0 | 12.0 | 0.00 | 0.00 | 0.00 | 37 | 1011.9 |
| 20260506204036 | 45 | 225 | 3.0 | 13.0 | 0.00 | 0.00 | 0.00 | 38 | 1012.0 |
| 20260506203016 | 44 | 315 | 4.0 | 10.0 | 0.00 | 0.00 | 0.00 | 38 | 1012.1 |
| 20260506202016 | 44 | 315 | 3.0 | 8.0 | 0.00 | 0.00 | 0.00 | 37 | 1012.1 |
| 20260506201016 | 44 | 23 | 5.0 | 14.0 | 0.00 | 0.00 | 0.00 | 37 | 1012.0 |
| 20260506200016 | 44 | 293 | 3.0 | 14.0 | 0.00 | 0.00 | 0.00 | 37 | 1012.1 |
| 20260506195016 | 44 | 0 | 6.0 | 12.0 | 0.00 | 0.00 | 0.00 | 37 | 1012.2 |
| 20260506194016 | 44 | 203 | 6.0 | 14.0 | 0.00 | 0.00 | 0.00 | 36 | 1012.2 |
| 20260506193016 | 44 | 315 | 2.0 | 7.0 | 0.00 | 0.00 | 0.00 | 37 | 1012.0 |
| 20260506192016 | 44 | 338 | 6.0 | 14.0 | 0.00 | 0.00 | 0.00 | 36 | 1012.2 |
| 20260506191016 | 44 | 315 | 5.0 | 11.0 | 0.00 | 0.00 | 0.00 | 37 | 1012.2 |
| 20260506190056 | 44 | 45 | 2.0 | 7.0 | 0.00 | 0.00 | 0.00 | 39 | 1012.3 |
| 20260506185016 | 43 | 113 | 4.0 | 12.0 | 0.00 | 0.00 | 0.00 | 39 | 1012.4 |
| 20260506184016 | 43 | 338 | 5.0 | 12.0 | 0.00 | 0.00 | 0.00 | 39 | 1012.3 |
| 20260506183016 | 43 | 315 | 4.0 | 14.0 | 0.00 | 0.00 | 0.00 | 38 | 1012.3 |
| 20260506182016 | 43 | 225 | 2.0 | 8.0 | 0.00 | 0.00 | 0.00 | 41 | 1012.2 |
| 20260506181016 | 43 | 225 | 3.0 | 11.0 | 0.00 | 0.00 | 0.00 | 40 | 1012.3 |
| 20260506180016 | 42 | 315 | 3.0 | 7.0 | 0.00 | 0.00 | 0.00 | 40 | 1012.3 |
| 20260506175016 | 42 | 315 | 3.0 | 17.0 | 0.00 | 0.00 | 0.00 | 41 | 1012.4 |
| 20260506174016 | 42 | 338 | 2.0 | 7.0 | 0.00 | 0.00 | 0.00 | 42 | 1012.4 |
| 20260506173016 | 42 | 315 | 5.0 | 11.0 | 0.00 | 0.00 | 0.00 | 41 | 1012.4 |